Regional Weather Roundup
Issued by NWS

Home | Current Version | Previous Version | Graphics & Text | Print | Product List | Glossary On
Versions: 1 2 3 4 5 6 7 8 9 10 11 12 13 14 15 16 17 18 19 20 21 22 23 24 25 26 27
000
ASUS45 KBOU 182006
RWRCO

WEATHER ROUNDUP FOR COLORADO
NATIONAL WEATHER SERVICE DENVER/BOULDER CO
200 PM MDT FRI APR 18 2014

NOTE: "FAIR" INDICATES FEW OR NO CLOUDS BELOW 12000 FEET WITH NO
SIGNIFICANT WEATHER AND/OR OBSTRUCTIONS TO VISIBILITY.

COZ001>005-013-030-031-182100-
...NORTHWEST COLORADO...

CITY           SKY/WX    TMP DP  RH WIND       PRES   REMARKS
CRAIG          MOSUNNY   70  25  18 W24G38    29.95F
HAYDEN         MOSUNNY   70  25  18 SW25G37   30.00F
MEEKER         MOSUNNY   73  23  15 SW20G35   29.98F
MOUNT WERNER   NOT AVBL
STEAMBOAT SPGS MOSUNNY   68  11  11 SW14G25   30.00F
WALDEN         CLOUDY    61  19  20 SW24G36   30.06F
$$

COZ006>008-011-182100-
...WEST CENTRAL VALLEYS...

CITY           SKY/WX    TMP DP  RH WIND       PRES   REMARKS
GRAND JUNCTION MOSUNNY   73  31  21 W16       29.94F
MONTROSE       PTSUNNY   72  25  17 W6        30.00F
EAGLE          MOSUNNY   70  25  18 SW17G33   30.03F
RIFLE          MOSUNNY   71  26  18 NW12      29.97F
DELTA          PTSUNNY   78  23  13 W6        29.97F
NUCLA            N/A     73  19  13 SW23G30   30.05F
$$

COZ017>023-064>068-182100-
...SOUTHWEST COLORADO...

CITY           SKY/WX    TMP DP  RH WIND       PRES   REMARKS
DURANGO        MOSUNNY   69  17  13 S13G21    30.09F
CORTEZ         SUNNY     74  20  13 SW15G26   30.05F
PAGOSA SPRINGS MOSUNNY   65  14  13 SW8       30.16F
TELLURIDE      PTSUNNY   57  18  21 SW12G22   30.19S
WOLF CREEK PAS MOSUNNY   41  21  45 S16G32    30.35F
$$

COZ009-010-012-014-032>034-037-058>063-182100-
...CENTRAL COLORADO...

CITY           SKY/WX    TMP DP  RH WIND       PRES   REMARKS
ASPEN          PTSUNNY   65  19  17 W13G18    30.09F
BUENA VISTA    SUNNY     66  13  12 SW17G36   30.11S
COPPER MTN     MOSUNNY   46  16  29 SW17G29   30.31F
BERTHOUD PASS  FAIR      41  32  70 MISG      30.34F
COTTONWOOD PAS SUNNY     59   5  11 W18G30    30.21S
GUNNISON       MOSUNNY   64  21  19 SW12G24   30.14F
KREMMLING      PTSUNNY   68  19  15 SW17G30   30.08F
LEADVILLE      MOSUNNY   49  18  29 SW10G22   30.21F
MONARCH PASS   SUNNY     45  19  36 W18G35    30.43S
SALIDA         SUNNY     69  20  15 SW7G18    30.15F
SUNLIGHT       PTSUNNY   50  23  34 SW5       30.25S
WILKERSON PASS SUNNY     52  23  32 SW9G17    30.30S
$$

COZ069>075-182100-
...SAN LUIS VALLEY/SANGRE DE CRISTO MOUNTAINS...

CITY           SKY/WX    TMP DP  RH WIND       PRES   REMARKS
ALAMOSA        PTSUNNY   65  25  22 VRB5      30.12F
LA VETA PASS   MOSUNNY   55  21  26 SW9G18    30.27F
SAGUACHE       MOSUNNY   63  25  23 S12G17    30.14F
$$

COZ035-036-038>040-182100-
...NORTHERN COLORADO FRONT RANGE...

CITY           SKY/WX    TMP DP  RH WIND       PRES   REMARKS
DENVER INTL AP PTSUNNY   77  24  14 SE15G22   29.92F
DMNS CITY PARK   N/A     77  25  14 S3G15     29.90F
AURORA         PTSUNNY   75  25  15 E7        29.93F
FRONT RANGE AP NOT AVBL
ERIE MUNI ARPT SUNNY     76  24  14 CALM      29.90F
BOULDER MUN AP SUNNY     77  28  16 NE10      29.90F
CENTENNIAL     MOSUNNY   76  24  14 SE12G18   29.93F
BROOMFIELD     MOSUNNY   75  27  16 NE9       29.94F
FORT COLLINS   MOSUNNY   77  37  24 SE13      29.90F
LONGMONT       MOSUNNY   79  29  16 SW7       29.91F
$$

COZ041-046-047-076>085-087-088-182100-
...PIKES PEAK/PALMER DIVIDE AND SOUTHERN FOOTHILLS...

CITY           SKY/WX    TMP DP  RH WIND       PRES   REMARKS
COLO. SPRINGS  MOSUNNY   71  33  24 SE13      30.01F
A. F. ACADEMY  MOSUNNY   71  30  22 SE16      30.01F
ELLICOTT       NOT AVBL
FALCON         SUNNY     70  22  16 S12G21    30.06F
FORT CARSON    SUNNY     74  33  22 SE25      29.97F
LIMON          SUNNY     74  27  17 SE8G18    29.98F
MONUMENT HILL  SUNNY     70  25  18 S17       30.02F
TRINIDAD       MOSUNNY   75  24  15 SE14      30.02F
$$

COZ042>045-048>051-090-091-182100-
...NORTHEAST COLORADO...

CITY           SKY/WX    TMP DP  RH WIND       PRES   REMARKS
GREELEY ARPT   MOSUNNY   81  28  15 SE12G18   29.90F
AKRON          MOSUNNY   76  24  14 S13G24    29.93F
BURLINGTON     MOSUNNY   75  35  23 S20G29    29.97F
WRAY           PTSUNNY   78  37  22 SE20      29.93F
STERLING       MOSUNNY   81  36  19 S15G22    29.88F
HOLYOKE        PTSUNNY   79  34  19 S15G28    29.91F
FORT MORGAN    MOSUNNY   79  22  12 S8G17     29.91F
$$

COZ086-089-092>099-182100-
...SOUTHEAST COLORADO...

CITY           SKY/WX    TMP DP  RH WIND       PRES   REMARKS
PUEBLO         SUNNY     77  29  17 SE8       29.94F
LA JUNTA       SUNNY     77  34  21 SE8       29.95F
LAMAR          SUNNY     77  35  21 SE14G21   29.94F
SPRINGFIELD      N/A     74  35  24 S22G31    30.00F
$$



USA.gov is the U.S. government's official web portal to all federal, state and local government web resources and services.